Location: Ferris
(32.5340°N, 96.6656°W)
Time: 10:12:31
(UTC+00:00)

Cosmos 1354 Rocket - Pass Details

Date: 11 February 2026
Orbit: 760 x 779 km, 74.0° (Epoch: 8 March)

Event Time Altitude Azimuth Distance (km) Brightness Sun altitude
Rises 12:29:35 0° 213° (SSW) 3,203 7.0 -9.8°
Reaches altitude 10° 12:32:04 10° 220° (SW) 2,282 6.2 -9.3°
Maximum altitude 12:36:56 41° 290° (WNW) 1,090 4.4 -8.2°
Drops below altitude 10° 12:41:51 10° 1° (N) 2,301 6.4 -7.2°
Sets 12:44:22 0° 9° (N) 3,234 7.2 -6.7°
